TimeMST,TemperatureF,Dew PointF,Humidity,Sea Level PressureIn,VisibilityMPH,Wind Direction,Wind SpeedMPH,Gust SpeedMPH,PrecipitationIn,Events,Conditions,WindDirDegrees,DateUTC
12:53 AM,32.0,9.0,38,30.12,10.0,Calm,Calm,-,N/A,,Clear,0,2012-12-11 07:53:00
1:53 AM,30.9,10.0,42,30.11,10.0,Calm,Calm,-,N/A,,Clear,0,2012-12-11 08:53:00
2:53 AM,30.9,8.1,38,30.12,10.0,SSE,3.5,-,N/A,,Clear,160,2012-12-11 09:53:00
3:53 AM,28.9,9.0,43,30.12,8.0,Calm,Calm,-,N/A,,Clear,0,2012-12-11 10:53:00
4:53 AM,28.0,9.0,45,30.13,2.0,Calm,Calm,-,N/A,,Haze,0,2012-12-11 11:53:00
5:07 AM,28.4,8.6,43,30.10,3.0,Calm,Calm,-,N/A,,Haze,0,2012-12-11 12:07:00
5:14 AM,28.4,8.6,43,30.10,2.0,Calm,Calm,-,N/A,,Haze,0,2012-12-11 12:14:00
5:31 AM,28.4,8.6,43,30.10,6.0,Calm,Calm,-,N/A,,Haze,0,2012-12-11 12:31:00
5:53 AM,28.0,9.0,45,30.13,9.0,Calm,Calm,-,N/A,,Clear,0,2012-12-11 12:53:00
6:53 AM,28.9,10.0,45,30.14,10.0,Calm,Calm,-,N/A,,Clear,0,2012-12-11 13:53:00
7:53 AM,28.0,12.0,51,30.15,4.0,SSW,3.5,-,N/A,,Haze,200,2012-12-11 14:53:00
8:53 AM,35.1,12.0,39,30.15,10.0,Calm,Calm,-,N/A,,Clear,0,2012-12-11 15:53:00
9:53 AM,37.0,12.9,37,30.17,10.0,Calm,Calm,-,N/A,,Clear,0,2012-12-11 16:53:00
10:53 AM,39.9,12.9,33,30.15,10.0,Calm,Calm,-,N/A,,Clear,0,2012-12-11 17:53:00
11:53 AM,41.0,14.0,33,30.12,10.0,NE,4.6,-,N/A,,Clear,40,2012-12-11 18:53:00
12:53 PM,44.1,12.9,28,30.07,10.0,ENE,5.8,-,N/A,,Clear,60,2012-12-11 19:53:00
1:53 PM,44.1,15.1,31,30.05,10.0,ENE,4.6,-,N/A,,Clear,70,2012-12-11 20:53:00
2:53 PM,46.0,17.1,31,30.01,10.0,Calm,Calm,-,N/A,,Clear,0,2012-12-11 21:53:00
3:53 PM,46.0,17.1,31,30.01,10.0,NNE,3.5,-,N/A,,Clear,20,2012-12-11 22:53:00
4:53 PM,44.1,18.0,35,30.00,10.0,Calm,Calm,-,N/A,,Clear,0,2012-12-11 23:53:00
5:53 PM,41.0,18.0,40,30.01,10.0,SE,4.6,-,N/A,,Clear,140,2012-12-12 00:53:00
6:53 PM,42.1,15.1,34,30.01,10.0,SSW,8.1,-,N/A,,Clear,210,2012-12-12 01:53:00
7:53 PM,42.1,12.0,29,30.03,10.0,South,5.8,-,N/A,,Clear,190,2012-12-12 02:53:00
8:53 PM,43.0,12.0,28,30.01,10.0,SSW,6.9,-,N/A,,Clear,210,2012-12-12 03:53:00
9:53 PM,41.0,12.0,31,30.01,10.0,South,3.5,-,N/A,,Clear,190,2012-12-12 04:53:00
10:53 PM,41.0,10.4,29,30.01,10.0,SW,5.8,-,N/A,,Clear,220,2012-12-12 05:53:00
11:53 PM,35.1,12.9,40,30.01,7.0,Calm,Calm,-,N/A,,Clear,0,2012-12-12 06:53:00